Regional Weather Roundup
Issued by NWS Tiyan, Guam

Home | Current Version | Previous Version | Text Only | Print | Product List | Glossary On
Versions: 1 2 3 4 5 6 7 8 9 10 11 12 13 14 15 16 17 18 19 20 21 22 23 24 25 26 27 28 29 30 31 32 33 34 35 36 37 38 39 40 41 42 43 44 45 46 47 48 49 50
000
ASGM40 PGUM 310512
RWRGUM
WEATHER ROUNDUP FOR THE MARIANAS
NATIONAL WEATHER SERVICE TIYAN GU
300 PM CHST THU JUL 31 2014

GUZ001>004-310600-
MARIANA ISLANDS-

CITY           SKY/WX    TMP DP  RH WIND       PRES   REMARKS
GUAM AIRPORT   LGT RAIN  77  75  94 SE8       29.81F
ANDERSEN AFB   SUNNY     77  73  88 S9        29.82S
ROTA AIRPORT   PTSUNNY   79  75  89 S14       29.79F
TINIAN AP      MOSUNNY   79  77  94 S10       29.79S
SAIPAN AP      MOSUNNY   82  75  78 S13       29.81S

$$




USA.gov is the U.S. government's official web portal to all federal, state and local government web resources and services.